Date String (YYYY-MM-DD hh:mm:ss) UTC,Instrument flags,absolute air pressure of the measurement (hPa),sample flow rate (lpm),inlet stack bypass flow (lpm),air temperature of the measurement (°C),ambient temperature measured by the external sensor (°C),aerosol sample conditioner tube jacket temperature (°C),OPC LED temperature (°C),internal box temperature (°C),relative humidity of the measurement (%),span deviation,mass concentration of particles derived from Lorenz-Mie calculation of OPC scattering (μg/m³),mass concentration of particles derived from Lorenz-Mie calculation of OPC scattering (μg/m³),mass concentration of particles derived from Lorenz-Mie calculation of OPC scattering (μg/m³)
DateTimeUTC,F1_M11,P_M11,Q1_M11,Q2_M11,T1_M11,T2_M11,T3_M11,T4_M11,T5_M11,U1_M11,ZSPAN_M11,X0_M11,X2_M11,X1_M11
2023-07-18 23:00:00,SystemResetWarning,0832.1,4.99,000.00,028.4,026.1,000.0,036.7,030.0,23.0,0000.0,0009.47,0004.41,0003.84
2023-07-18 23:01:00,SystemResetWarning,0832.0,5.01,000.00,028.4,026.5,000.0,036.7,030.1,23.1,0000.0,0009.61,0004.39,0003.85
2023-07-18 23:02:00,SystemResetWarning,0832.1,5.02,000.00,028.5,026.9,000.0,036.7,030.2,23.3,0000.0,0009.70,0004.40,0003.86
2023-07-18 23:03:00,SystemResetWarning,0831.9,4.99,000.00,028.5,027.2,000.0,036.8,030.3,23.4,0000.0,0009.66,0004.40,0003.87
2023-07-18 23:04:00,SystemResetWarning,0831.8,4.99,000.00,028.5,026.1,000.0,036.7,030.2,23.9,0000.0,0009.68,0004.40,0003.89
2023-07-18 23:05:00,SystemResetWarning,0831.8,5.00,000.00,028.5,024.7,000.0,036.6,029.9,24.0,0000.0,0009.65,0004.41,0003.90
2023-07-18 23:06:00,SystemResetWarning,0832.0,5.00,000.00,028.4,024.7,000.0,036.6,029.9,23.9,0000.0,0009.59,0004.39,0003.90
2023-07-18 23:07:00,SystemResetWarning,0832.0,5.01,000.00,028.4,025.0,000.0,036.6,029.8,24.2,0000.0,0008.64,0004.40,0003.90
2023-07-18 23:08:00,SystemResetWarning,0832.0,5.00,000.00,028.3,025.5,000.0,036.6,029.8,23.9,0000.0,0008.42,0004.40,0003.90
2023-07-18 23:09:00,SystemResetWarning,0831.8,4.99,000.00,028.4,026.0,000.0,036.7,030.0,24.3,0000.0,0008.82,0004.44,0003.91
2023-07-18 23:10:00,SystemResetWarning,0831.8,5.00,000.00,028.4,026.5,000.0,036.7,030.1,24.8,0000.0,0009.37,0004.47,0003.91
2023-07-18 23:11:00,SystemResetWarning,0831.7,5.01,000.00,028.5,026.9,000.0,036.7,030.2,25.2,0000.0,0009.31,0004.45,0003.91
2023-07-18 23:12:00,SystemResetWarning,0831.8,5.00,000.00,028.5,027.2,000.0,036.8,030.3,25.2,0000.0,0009.20,0004.48,0003.92
2023-07-18 23:13:00,SystemResetWarning,0831.8,4.98,000.00,028.5,026.3,000.0,036.7,030.1,25.6,0000.0,0009.15,0004.51,0003.92
2023-07-18 23:14:00,SystemResetWarning,0832.1,5.00,000.00,028.5,024.7,000.0,036.6,029.9,25.6,0000.0,0009.86,0004.54,0003.92
2023-07-18 23:15:00,SystemResetWarning,0831.8,5.01,000.00,028.4,024.6,000.0,036.5,029.8,25.5,0000.0,0010.67,0004.57,0003.92
2023-07-18 23:16:00,SystemResetWarning,0831.8,5.00,000.00,028.3,025.0,000.0,036.6,029.7,25.6,0000.0,0012.22,0004.58,0003.92
2023-07-18 23:17:00,SystemResetWarning,0831.9,5.00,000.00,028.3,025.4,000.0,036.6,029.8,25.3,0000.0,0013.11,0004.59,0003.91
2023-07-18 23:18:00,SystemResetWarning,0831.9,5.01,000.00,028.3,025.9,000.0,036.7,029.9,25.4,0000.0,0013.19,0004.59,0003.92
2023-07-18 23:19:00,SystemResetWarning,0831.9,5.00,000.00,028.4,026.4,000.0,036.7,030.0,25.5,0000.0,0013.18,0004.58,0003.91
2023-07-18 23:20:00,SystemResetWarning,0831.9,5.00,000.00,028.4,026.8,000.0,036.7,030.1,26.0,0000.0,0013.08,0004.56,0003.89
2023-07-18 23:21:00,SystemResetWarning,0831.9,5.00,000.00,028.5,027.1,000.0,036.7,030.2,26.4,0000.0,0012.57,0004.52,0003.87
2023-07-18 23:22:00,SystemResetWarning,0831.9,5.00,000.00,028.5,027.1,000.0,036.7,030.3,26.5,0000.0,0012.32,0004.50,0003.85
2023-07-18 23:23:00,SystemResetWarning,0831.9,4.97,000.00,028.5,025.6,000.0,036.7,030.1,26.2,0000.0,0012.47,0004.54,0003.84
2023-07-18 23:24:00,SystemResetWarning,0831.9,5.02,000.00,028.4,024.6,000.0,036.6,029.9,26.4,0000.0,0014.02,0004.60,0003.83
2023-07-18 23:25:00,SystemResetWarning,0831.8,5.00,000.00,028.4,024.8,000.0,036.5,029.8,26.8,0000.0,0015.23,0004.62,0003.83
2023-07-18 23:26:00,SystemResetWarning,0831.9,5.01,000.00,028.3,025.2,000.0,036.6,029.8,27.0,0000.0,0015.29,0004.64,0003.82
2023-07-18 23:27:00,SystemResetWarning,0831.9,5.00,000.00,028.3,025.7,000.0,036.6,029.9,27.2,0000.0,0015.97,0004.69,0003.80
2023-07-18 23:28:00,SystemResetWarning,0831.9,5.00,000.00,028.4,026.1,000.0,036.7,030.0,26.8,0000.0,0018.26,0004.78,0003.79
2023-07-18 23:29:00,SystemResetWarning,0831.9,4.99,000.00,028.4,026.6,000.0,036.7,030.1,27.2,0000.0,0020.91,0004.91,0003.78
2023-07-18 23:30:00,SystemResetWarning,0832.0,5.00,000.00,028.5,026.9,000.0,036.7,030.2,27.3,0000.0,0022.70,0005.06,0003.78
2023-07-18 23:31:00,SystemResetWarning,0832.0,5.00,000.00,028.5,027.2,000.0,036.8,030.3,27.3,0000.0,0024.11,0005.28,0003.80
2023-07-18 23:32:00,SystemResetWarning,0832.0,4.98,000.00,028.5,026.7,000.0,036.7,030.2,27.6,0000.0,0027.20,0005.49,0003.81
2023-07-18 23:33:00,SystemResetWarning,0832.0,5.01,000.00,028.5,025.0,000.0,036.6,030.0,27.7,0000.0,0030.91,0005.77,0003.82
2023-07-18 23:34:00,SystemResetWarning,0832.0,5.01,000.00,028.4,024.5,000.0,036.6,029.8,28.0,0000.0,0034.43,0005.94,0003.81
2023-07-18 23:35:00,SystemResetWarning,0832.0,5.01,000.00,028.4,024.9,000.0,036.6,029.8,27.8,0000.0,0035.49,0006.03,0003.80
2023-07-18 23:36:00,SystemResetWarning,0832.0,5.00,000.00,028.3,025.3,000.0,036.6,029.8,28.4,0000.0,0035.59,0006.06,0003.78
2023-07-18 23:37:00,SystemResetWarning,0832.1,5.00,000.00,028.3,025.8,000.0,036.7,029.9,28.6,0000.0,0035.97,0006.15,0003.77
2023-07-18 23:38:00,SystemResetWarning,0832.0,5.00,000.00,028.4,026.3,000.0,036.7,030.0,28.1,0000.0,0035.43,0006.22,0003.77
2023-07-18 23:39:00,SystemResetWarning,0832.1,4.99,000.00,028.4,026.7,000.0,036.7,030.1,28.1,0000.0,0034.45,0006.23,0003.76
2023-07-18 23:40:00,SystemResetWarning,0832.1,5.00,000.00,028.5,027.0,000.0,036.8,030.2,28.5,0000.0,0032.84,0006.26,0003.75
2023-07-18 23:41:00,SystemResetWarning,0832.1,5.00,000.00,028.5,027.2,000.0,036.8,030.3,29.0,0000.0,0034.30,0006.38,0003.75
2023-07-18 23:42:00,SystemResetWarning,0832.1,4.98,000.00,028.5,026.0,000.0,036.7,030.2,29.4,0000.0,0039.13,0006.52,0003.74
2023-07-18 23:43:00,SystemResetWarning,0832.1,5.00,000.00,028.5,024.6,000.0,036.6,029.9,29.8,0000.0,0039.64,0006.59,0003.72
2023-07-18 23:44:00,SystemResetWarning,0832.1,5.01,000.00,028.4,024.7,000.0,036.6,029.8,29.9,0000.0,0038.76,0006.61,0003.71
2023-07-18 23:45:00,SystemResetWarning,0832.1,5.01,000.00,028.3,025.0,000.0,036.6,029.7,30.0,0000.0,0038.57,0006.59,0003.70
2023-07-18 23:46:00,SystemResetWarning,0832.1,4.99,000.00,028.3,025.5,000.0,036.7,029.8,29.9,0000.0,0038.65,0006.56,0003.70
2023-07-18 23:47:00,SystemResetWarning,0832.1,5.00,000.00,028.4,026.0,000.0,036.7,030.0,29.9,0000.0,0039.82,0006.61,0003.71
2023-07-18 23:48:00,SystemResetWarning,0832.0,5.01,000.00,028.4,026.4,000.0,036.7,030.1,29.7,0000.0,0040.24,0006.61,0003.74
2023-07-18 23:49:00,SystemResetWarning,0832.1,4.99,000.00,028.4,026.8,000.0,036.8,030.2,29.8,0000.0,0041.05,0006.63,0003.78
2023-07-18 23:50:00,SystemResetWarning,0832.2,5.00,000.00,028.5,027.1,000.0,036.8,030.3,29.8,0000.0,0042.36,0006.60,0003.83
2023-07-18 23:51:00,SystemResetWarning,0832.2,5.00,000.00,028.6,027.4,000.0,036.8,030.4,29.8,0000.0,0041.94,0006.58,0003.88
2023-07-18 23:52:00,SystemResetWarning,0832.2,5.00,000.00,028.6,027.2,000.0,036.8,030.4,30.3,0000.0,0039.82,0006.53,0003.93
2023-07-18 23:53:00,SystemResetWarning,0832.2,4.99,000.00,028.6,025.8,000.0,036.7,030.3,30.8,0000.0,0036.23,0006.50,0004.01
2023-07-18 23:54:00,SystemResetWarning,0832.2,5.01,000.00,028.6,025.5,000.0,036.7,030.2,31.1,0000.0,0034.10,0006.50,0004.14
2023-07-18 23:55:00,SystemResetWarning,0832.2,5.01,000.00,028.5,025.8,000.0,036.7,030.1,31.1,0000.0,0031.47,0006.49,0004.29
2023-07-18 23:56:00,SystemResetWarning,0832.2,5.00,000.00,028.5,026.2,000.0,036.8,030.1,31.0,0000.0,0028.80,0006.56,0004.44
2023-07-18 23:57:00,SystemResetWarning,0832.3,5.00,000.00,028.6,026.5,000.0,036.8,030.2,30.9,0000.0,0026.46,0006.63,0004.60
2023-07-18 23:58:00,SystemResetWarning,0832.3,5.00,000.00,028.6,026.9,000.0,036.9,030.3,30.9,0000.0,0024.15,0006.73,0004.74
2023-07-18 23:59:00,SystemResetWarning,0832.3,5.00,000.00,028.7,027.2,000.0,036.9,030.4,30.7,0000.6,0023.31,0006.82,0004.87
